• In Hungary
  • List of Countries
  • For 7 days
  • Water Temperature
  • Satellite Maps
  • Weather Map
  • News
  • Weather Widgets
  • user-avatar
    Login

    Hourly Weather Mol

    Today, 20 September, Thursday

    Time Temperature Precipitation Wind Pressure Humidity
    00:00 +18°C° 0 mm 3 mps 761 mmHg 77%
    01:00 +18°C° 0 mm 3 mps 760 mmHg 78%
    02:00 +18°C° 0 mm 3 mps 760 mmHg 78%
    03:00 +18°C° 0 mm 3 mps 760 mmHg 79%
    04:00 +17°C° 0 mm 3 mps 760 mmHg 80%
    05:00 +17°C° 0 mm 3 mps 760 mmHg 81%
    06:00 +17°C° 0 mm 3 mps 760 mmHg 81%
    07:00 +19°C° 0 mm 4 mps 760 mmHg 76%
    08:00 +20°C° 0 mm 5 mps 760 mmHg 71%
    09:00 +22°C° 0 mm 6 mps 760 mmHg 66%
    10:00 +23°C° 0 mm 6 mps 760 mmHg 62%
    11:00 +24°C° 0 mm 6 mps 759 mmHg 57%
    12:00 +24°C° 0 mm 6 mps 759 mmHg 54%
    13:00 +26°C° 0 mm 6 mps 759 mmHg 54%
    14:00 +26°C° 0 mm 5 mps 758 mmHg 53%
    15:00 +26°C° 0 mm 5 mps 758 mmHg 52%
    16:00 +25°C° 0 mm 5 mps 757 mmHg 57%
    17:00 +22°C° 0 mm 4 mps 757 mmHg 61%
    18:00 +21°C° 0 mm 4 mps 756 mmHg 66%
    19:00 +21°C° 0 mm 4 mps 756 mmHg 63%
    20:00 +21°C° 0 mm 5 mps 755 mmHg 61%
    21:00 +21°C° 0 mm 5 mps 754 mmHg 59%
    22:00 +21°C° 0 mm 5 mps 754 mmHg 57%
    23:00 +21°C° 0 mm 6 mps 753 mmHg 56%

    Tomorrow, 21 September, Friday

    Time Temperature Precipitation Wind Pressure Humidity
    00:00 +21°C° 0 mm 6 mps 753 mmHg 54%
    01:00 +21°C° 0 mm 6 mps 752 mmHg 56%
    02:00 +21°C° 0 mm 7 mps 751 mmHg 59%
    03:00 +20°C° 0 mm 8 mps 751 mmHg 61%
    04:00 +20°C° 0.3 mm 8 mps 751 mmHg 65%
    05:00 +18°C° 0.3 mm 9 mps 750 mmHg 69%
    06:00 +18°C° 0.3 mm 9 mps 750 mmHg 73%
    07:00 +17°C° 0.9 mm 9 mps 751 mmHg 71%
    08:00 +16°C° 0.9 mm 9 mps 752 mmHg 68%
    09:00 +15°C° 0.9 mm 8 mps 753 mmHg 66%
    10:00 +15°C° 0 mm 9 mps 754 mmHg 59%
    11:00 +16°C° 0 mm 9 mps 755 mmHg 52%
    12:00 +17°C° 0 mm 9 mps 755 mmHg 45%
    13:00 +17°C° 0 mm 9 mps 756 mmHg 44%
    14:00 +17°C° 0 mm 9 mps 756 mmHg 44%
    15:00 +17°C° 0 mm 9 mps 757 mmHg 43%
    16:00 +16°C° 0 mm 8 mps 757 mmHg 47%
    17:00 +15°C° 0 mm 7 mps 757 mmHg 51%
    18:00 +14°C° 0 mm 6 mps 758 mmHg 55%
    19:00 +14°C° 0 mm 6 mps 758 mmHg 57%
    20:00 +13°C° 0 mm 6 mps 759 mmHg 59%
    21:00 +12°C° 0 mm 7 mps 759 mmHg 61%
    22:00 +13°C° 0.1 mm 6 mps 760 mmHg 64%
    23:00 +11°C° 0.1 mm 6 mps 760 mmHg 66%

    Day after tomorrow, 22 September, Saturday

    Time Temperature Precipitation Wind Pressure Humidity
    00:00 +12°C° 0.1 mm 5 mps 760 mmHg 69%
    01:00 +12°C° 0 mm 5 mps 761 mmHg 70%
    02:00 +12°C° 0 mm 5 mps 761 mmHg 72%
    03:00 +10°C° 0 mm 5 mps 762 mmHg 74%
    04:00 +10°C° 0 mm 5 mps 762 mmHg 74%
    05:00 +10°C° 0 mm 5 mps 762 mmHg 75%
    06:00 +10°C° 0 mm 5 mps 762 mmHg 75%
    07:00 +12°C° 0 mm 5 mps 763 mmHg 70%
    08:00 +14°C° 0 mm 5 mps 763 mmHg 65%
    09:00 +15°C° 0 mm 6 mps 763 mmHg 60%
    10:00 +16°C° 0 mm 6 mps 763 mmHg 57%
    11:00 +16°C° 0 mm 6 mps 763 mmHg 54%
    12:00 +17°C° 0 mm 6 mps 763 mmHg 51%
    13:00 +17°C° 0 mm 5 mps 763 mmHg 51%
    14:00 +17°C° 0 mm 5 mps 763 mmHg 51%
    15:00 +17°C° 0 mm 5 mps 763 mmHg 51%
    16:00 +17°C° 0 mm 4 mps 763 mmHg 54%
    17:00 +14°C° 0 mm 3 mps 763 mmHg 58%
    18:00 +14°C° 0 mm 2 mps 763 mmHg 62%
    19:00 +14°C° 0 mm 2 mps 763 mmHg 64%
    20:00 +14°C° 0 mm 2 mps 764 mmHg 66%
    21:00 +14°C° 0 mm 2 mps 764 mmHg 68%
    22:00 +13°C° 0.5 mm 2 mps 763 mmHg 74%
    23:00 +13°C° 0.5 mm 2 mps 763 mmHg 80%

    23 September, Sunday

    Time Temperature Precipitation Wind Pressure Humidity
    00:00 +13°C° 0.5 mm 2 mps 762 mmHg 87%
    01:00 +12°C° 0.8 mm 2 mps 762 mmHg 88%
    02:00 +11°C° 0.8 mm 3 mps 761 mmHg 89%
    03:00 +11°C° 0.8 mm 3 mps 760 mmHg 91%
    04:00 +11°C° 0.6 mm 3 mps 759 mmHg 91%
    05:00 +12°C° 0.6 mm 3 mps 758 mmHg 91%
    06:00 +12°C° 0.6 mm 3 mps 758 mmHg 91%
    07:00 +12°C° 0.5 mm 3 mps 757 mmHg 92%
    08:00 +13°C° 0.5 mm 3 mps 757 mmHg 93%
    09:00 +14°C° 0.5 mm 3 mps 757 mmHg 93%
    10:00 +15°C° 0.7 mm 4 mps 756 mmHg 93%
    11:00 +16°C° 0.7 mm 5 mps 755 mmHg 92%
    12:00 +19°C° 0.7 mm 6 mps 755 mmHg 92%
    13:00 +18°C° 0.5 mm 7 mps 754 mmHg 90%
    14:00 +20°C° 0.5 mm 8 mps 753 mmHg 89%
    15:00 +21°C° 0.5 mm 9 mps 752 mmHg 87%
    16:00 +19°C° 1.1 mm 10 mps 751 mmHg 86%
    17:00 +19°C° 1.1 mm 10 mps 751 mmHg 86%
    18:00 +19°C° 1.1 mm 11 mps 750 mmHg 85%
    19:00 +16°C° 0.5 mm 11 mps 751 mmHg 84%
    20:00 +13°C° 0.5 mm 12 mps 753 mmHg 83%
    21:00 +10°C° 0.5 mm 12 mps 754 mmHg 83%
    22:00 +9°C° 0.1 mm 10 mps 757 mmHg 82%
    23:00 +9°C° 0.1 mm 7 mps 759 mmHg 82%

    24 September, Monday

    Time Temperature Precipitation Wind Pressure Humidity
    00:00 +8°C° 0.1 mm 5 mps 762 mmHg 82%
    01:00 +8°C° 0 mm 4 mps 763 mmHg 82%
    02:00 +9°C° 0 mm 3 mps 764 mmHg 82%
    03:00 +9°C° 0 mm 3 mps 766 mmHg 82%
    04:00 +9°C° 0 mm 2 mps 767 mmHg 82%
    05:00 +8°C° 0 mm 2 mps 767 mmHg 81%
    06:00 +8°C° 0 mm 2 mps 768 mmHg 81%
    07:00 +10°C° 0 mm 3 mps 769 mmHg 72%
    08:00 +12°C° 0 mm 4 mps 770 mmHg 64%
    09:00 +14°C° 0 mm 4 mps 771 mmHg 56%
    10:00 +14°C° 0.1 mm 4 mps 771 mmHg 54%
    11:00 +15°C° 0.1 mm 5 mps 772 mmHg 51%
    12:00 +15°C° 0.1 mm 5 mps 772 mmHg 49%
    13:00 +15°C° 0 mm 5 mps 772 mmHg 49%
    14:00 +15°C° 0 mm 5 mps 773 mmHg 48%
    15:00 +15°C° 0 mm 5 mps 773 mmHg 48%
    16:00 +13°C° 0 mm 4 mps 773 mmHg 53%
    17:00 +12°C° 0 mm 3 mps 774 mmHg 59%
    18:00 +10°C° 0 mm 3 mps 774 mmHg 65%
    19:00 +10°C° 0 mm 2 mps 775 mmHg 68%
    20:00 +9°C° 0 mm 2 mps 775 mmHg 71%
    21:00 +9°C° 0 mm 2 mps 776 mmHg 73%
    22:00 +9°C° 0 mm 1 mps 776 mmHg 76%
    23:00 +9°C° 0 mm 1 mps 776 mmHg 78%

    25 September, Tuesday

    Time Temperature Precipitation Wind Pressure Humidity
    00:00 +8°C° 0 mm 1 mps 776 mmHg 80%
    01:00 +8°C° 0 mm 1 mps 777 mmHg 81%
    02:00 +8°C° 0 mm 1 mps 777 mmHg 83%
    03:00 +8°C° 0 mm 1 mps 777 mmHg 84%
    04:00 +8°C° 0 mm 1 mps 777 mmHg 84%
    05:00 +7°C° 0 mm 1 mps 777 mmHg 84%
    06:00 +7°C° 0 mm 1 mps 777 mmHg 85%
    07:00 +9°C° 0 mm 1 mps 778 mmHg 76%
    08:00 +10°C° 0 mm 2 mps 778 mmHg 67%
    09:00 +13°C° 0 mm 2 mps 778 mmHg 59%
    10:00 +13°C° 0 mm 3 mps 778 mmHg 54%
    11:00 +14°C° 0 mm 3 mps 778 mmHg 48%
    12:00 +16°C° 0 mm 3 mps 778 mmHg 43%
    13:00 +16°C° 0 mm 3 mps 777 mmHg 42%
    14:00 +16°C° 0 mm 3 mps 777 mmHg 42%
    15:00 +17°C° 0 mm 3 mps 776 mmHg 41%
    16:00 +14°C° 0 mm 3 mps 776 mmHg 46%
    17:00 +13°C° 0 mm 2 mps 776 mmHg 51%
    18:00 +12°C° 0 mm 2 mps 776 mmHg 56%
    19:00 +10°C° 0 mm 2 mps 777 mmHg 58%
    20:00 +10°C° 0 mm 2 mps 777 mmHg 61%
    21:00 +9°C° 0 mm 2 mps 777 mmHg 63%
    22:00 +8°C° 0 mm 2 mps 777 mmHg 65%
    23:00 +8°C° 0 mm 2 mps 776 mmHg 66%
    Show more